K7TUS-6 Weather Reports


Display with metric or nautical units.
time (UTC)temp
F
wind
direction
speed
MPH
gust
MPH
rain 1hr
in
rain 24hr
in
rain mn
in
humidity
%
barometer
mb
20260510011007 67 277 4.0 10.0 0.00 0.00 0.00 1 986.6
20260510010507 70 305 3.0 6.0 0.00 0.00 0.00 1 987.1
20260510010006 72 10 1.0 1.0 0.00 0.00 0.00 1 987.3
20260510005505 72 10 1.0 1.0 0.00 0.00 0.00 1 987.3
20260510005005 72 10 1.0 1.0 0.00 0.00 0.00 1 987.3
20260510004504 72 10 1.0 1.0 0.00 0.00 0.00 1 987.3
20260510004004 72 10 1.0 1.0 0.00 0.00 0.00 1 987.3
20260510003504 72 10 1.0 1.0 0.00 0.00 0.00 1 987.3
20260510003003 72 10 1.0 1.0 0.00 0.00 0.00 1 987.3
20260510002508 70 208 1.0 4.0 0.00 0.00 0.00 1 987.1
20260510002008 71 330 9.0 9.0 0.00 0.00 0.00 1 987.3
20260510001508 71 330 9.0 9.0 0.00 0.00 0.00 1 987.3
20260510001007 73 184 4.0 4.0 0.00 0.00 0.00 1 986.9
20260510000506 69 119 0.0 0.0 0.00 0.00 0.00 1 986.5
20260510000006 69 119 3.0 4.0 0.00 0.00 0.00 1 986.5
20260509235505 71 239 2.0 2.0 0.00 0.00 0.00 1 985.9
20260509235005 73 169 4.0 4.0 0.00 0.00 0.00 1 986.3
20260509234504 73 184 5.0 10.0 0.00 0.00 0.00 1 986.3
20260509234004 74 206 8.0 12.0 0.00 0.00 0.00 1 986.9
20260509233509 74 136 2.0 5.0 0.00 0.00 0.00 1 986.0
20260509233008 72 55 3.0 9.0 0.00 0.00 0.00 1 986.7
20260509232508 71 191 2.0 4.0 0.00 0.00 0.00 1 986.3
20260509232008 72 229 6.0 11.0 0.00 0.00 0.00 1 988.2
20260509231507 72 187 9.0 16.0 0.00 0.00 0.00 1 986.3
20260509231006 73 214 5.0 9.0 0.00 0.00 0.00 1 987.0
20260509230506 75 53 2.0 3.0 0.00 0.00 0.00 1 986.8
20260509230005 72 275 3.0 5.0 0.00 0.00 0.00 1 987.5
20260509225505 76 184 1.0 4.0 0.00 0.00 0.00 1 987.9
20260509224504 72 273 2.0 5.0 0.00 0.00 0.00 1 988.1
20260509224004 74 162 4.0 6.0 0.00 0.00 0.00 1 987.5
20260509223503 76 175 4.0 6.0 0.00 0.00 0.00 1 987.7
20260509223003 76 126 2.0 4.0 0.00 0.00 0.00 1 987.4
20260509222508 74 204 3.0 7.0 0.00 0.00 0.00 1 987.8
20260509222008 73 190 10.0 16.0 0.00 0.00 0.00 1 987.4
20260509221508 72 7 1.0 4.0 0.00 0.00 0.00 1 987.4
20260509221007 71 302 7.0 12.0 0.00 0.00 0.00 1 988.2
20260509220507 72 329 3.0 6.0 0.00 0.00 0.00 1 986.8
20260509220006 72 186 2.0 5.0 0.00 0.00 0.00 1 986.7
20260509215506 70 303 7.0 12.0 0.00 0.00 0.00 1 987.9
20260509215005 73 238 2.0 4.0 0.00 0.00 0.00 1 987.7
20260509214504 74 118 5.0 8.0 0.00 0.00 0.00 1 988.9
20260509214004 73 237 3.0 6.0 0.00 0.00 0.00 1 988.3
20260509213504 74 91 2.0 3.0 0.00 0.00 0.00 1 988.0
20260509213003 73 360 3.0 5.0 0.00 0.00 0.00 1 989.3
20260509212503 71 38 2.0 3.0 0.00 0.00 0.00 1 988.3
20260509212008 72 281 7.0 13.0 0.00 0.00 0.00 1 988.4
20260509211508 78 198 2.0 6.0 0.00 0.00 0.00 1 988.2
20260509211007 77 109 2.0 4.0 0.00 0.00 0.00 1 987.8
20260509210506 76 253 2.0 8.0 0.00 0.00 0.00 1 988.7
20260509210005 74 230 2.0 5.0 0.00 0.00 0.00 1 988.5
20260509205505 74 196 2.0 7.0 0.00 0.00 0.00 1 988.4
20260509205005 78 168 3.0 4.0 0.00 0.00 0.00 1 988.9
20260509204505 74 328 1.0 3.0 0.00 0.00 0.00 1 989.0
20260509204004 72 39 4.0 6.0 0.00 0.00 0.00 1 988.8
20260509203503 74 149 2.0 4.0 0.00 0.00 0.00 1 988.9
20260509203003 73 211 3.0 7.0 0.00 0.00 0.00 1 988.5
20260509202502 76 271 2.0 5.0 0.00 0.00 0.00 1 988.8
20260509202008 75 188 4.0 6.0 0.00 0.00 0.00 1 988.1
20260509201507 74 204 4.0 6.0 0.00 0.00 0.00 1 989.2
20260509201007 76 166 2.0 4.0 0.00 0.00 0.00 1 989.5
20260509200536 76 348 2.0 3.0 0.00 0.00 0.00 1 989.3
20260509200005 76 232 2.0 4.0 0.00 0.00 0.00 1 988.1
20260509195505 77 98 2.0 4.0 0.00 0.00 0.00 1 988.8
20260509195003 73 264 1.0 1.0 0.00 0.00 0.00 1 988.9
20260509194509 70 345 4.0 8.0 0.00 0.00 0.00 1 988.6
20260509194008 74 94 1.0 3.0 0.00 0.00 0.00 1 989.3
20260509193507 73 331 2.0 3.0 0.00 0.00 0.00 1 988.9
20260509193007 74 93 2.0 2.0 0.00 0.00 0.00 1 988.9
20260509192506 73 86 2.0 2.0 0.00 0.00 0.00 1 989.0
20260509192006 72 135 1.0 1.0 0.00 0.00 0.00 1 988.8
20260509191505 72 55 1.0 2.0 0.00 0.00 0.00 1 989.2
20260509191004 75 97 1.0 1.0 0.00 0.00 0.00 1 989.2
20260509190504 74 353 1.0 2.0 0.00 0.00 0.00 1 989.1
20260509190003 75 343 1.0 1.0 0.00 0.00 0.00 1 988.5
20260509185507 74 3 2.0 6.0 0.00 0.00 0.00 1 988.8
20260509185006 74 21 3.0 4.0 0.00 0.00 0.00 1 988.8
20260509184506 73 54 2.0 2.0 0.00 0.00 0.00 1 988.8
20260509184005 71 350 4.0 5.0 0.00 0.00 0.00 1 989.2
20260509183505 72 359 2.0 4.0 0.00 0.00 0.00 1 989.4
20260509183004 69 66 2.0 3.0 0.00 0.00 0.00 1 989.1
20260509182003 69 327 3.0 5.0 0.00 0.00 0.00 1 990.2
20260509181509 72 8 3.0 4.0 0.00 0.00 0.00 1 989.6
20260509181008 72 11 2.0 4.0 0.00 0.00 0.00 1 988.1
20260509180508 70 52 3.0 5.0 0.00 0.00 0.00 1 989.4
20260509180007 70 10 4.0 8.0 0.00 0.00 0.00 1 989.8
20260509175506 71 8 2.0 3.0 0.00 0.00 0.00 1 989.3
20260509175006 69 334 2.0 6.0 0.00 0.00 0.00 1 989.2
20260509174505 69 348 3.0 4.0 0.00 0.00 0.00 1 989.1
20260509174004 67 343 3.0 6.0 0.00 0.00 0.00 1 989.6
20260509173504 67 326 4.0 7.0 0.00 0.00 0.00 1 988.8
20260509173003 65 340 6.0 8.0 0.00 0.00 0.00 1 989.5
20260509172508 65 337 8.0 11.0 0.00 0.00 0.00 1 989.3
20260509172007 69 6 1.0 1.0 0.00 0.00 0.00 1 989.0
20260509171506 69 6 1.0 1.0 0.00 0.00 0.00 1 989.0
20260509171006 65 334 4.0 4.0 0.00 0.00 0.00 1 988.8
20260509170506 65 334 4.0 4.0 0.00 0.00 0.00 1 988.8
20260509170005 64 359 2.0 2.0 0.00 0.00 0.00 1 988.2
20260509165504 64 310 4.0 4.0 0.00 0.00 0.00 1 989.8
20260509165003 63 311 4.0 4.0 0.00 0.00 0.00 1 988.7
20260509164003 63 311 4.0 4.0 0.00 0.00 0.00 1 988.7
20260509163508 62 329 10.0 10.0 0.00 0.00 0.00 1 989.0
20260509162507 65 335 4.0 4.0 0.00 0.00 0.00 1 988.8
20260509162007 64 331 5.0 8.0 0.00 0.00 0.00 1 989.1
20260509161006 61 320 11.0 15.0 0.00 0.00 0.00 1 989.0
20260509160005 63 331 6.0 8.0 0.00 0.00 0.00 1 988.8
20260509155505 61 323 7.0 11.0 0.00 0.00 0.00 1 987.8
20260509154504 62 335 6.0 7.0 0.00 0.00 0.00 1 988.0
20260509154003 62 337 5.0 7.0 0.00 0.00 0.00 1 987.3
20260509153003 60 348 9.0 11.0 0.00 0.00 0.00 1 987.3
20260509152508 59 337 9.0 14.0 0.00 0.00 0.00 1 987.5
20260509152008 60 330 9.0 12.0 0.00 0.00 0.00 1 988.0
20260509151507 60 323 7.0 9.0 0.00 0.00 0.00 100 988.9
20260509151006 59 342 6.0 6.0 0.00 0.00 0.00 1 988.4
20260509150506 59 325 7.0 11.0 0.00 0.00 0.00 1 988.6
20260509150005 59 324 7.0 9.0 0.00 0.00 0.00 1 988.5
20260509145504 59 326 7.0 10.0 0.00 0.00 0.00 1 988.3
20260509145003 59 325 7.0 9.0 0.00 0.00 0.00 1 988.8
20260509144503 59 326 10.0 13.0 0.00 0.00 0.00 1 988.4
20260509144008 59 327 7.0 9.0 0.00 0.00 0.00 100 987.8
20260509143507 58 320 10.0 12.0 0.00 0.00 0.00 1 987.8
20260509143007 58 326 7.0 10.0 0.00 0.00 0.00 100 987.8
20260509142506 58 319 7.0 13.0 0.00 0.00 0.00 1 987.1
20260509142006 57 323 9.0 14.0 0.00 0.00 0.00 1 987.2
20260509141505 57 339 9.0 12.0 0.00 0.00 0.00 1 987.9
20260509141004 56 330 13.0 15.0 0.00 0.00 0.00 1 987.0
20260509140503 56 329 11.0 13.0 0.00 0.00 0.00 1 986.9
20260509140002 56 330 10.0 15.0 0.00 0.00 0.00 100 987.7
20260509135502 56 328 10.0 11.0 0.00 0.00 0.00 100 988.0
20260509135007 56 329 9.0 13.0 0.00 0.00 0.00 100 988.0
20260509134507 56 329 9.0 13.0 0.00 0.00 0.00 1 986.8
20260509134006 55 327 9.0 11.0 0.00 0.00 0.00 1 987.2
20260509133506 55 325 11.0 13.0 0.00 0.00 0.00 100 987.6
20260509133005 55 324 9.0 12.0 0.00 0.00 0.00 100 988.0
20260509132503 55 327 11.0 13.0 0.00 0.00 0.00 100 987.5
20260509132002 54 321 11.0 13.0 0.00 0.00 0.00 1 987.0
20260509131508 55 330 10.0 12.0 0.00 0.00 0.00 1 986.3
20260509131007 54 329 12.0 14.0 0.00 0.00 0.00 1 986.3
20260509130507 54 330 12.0 15.0 0.00 0.00 0.00 100 986.6
20260509130006 54 324 12.0 14.0 0.00 0.00 0.00 1 986.6
20260509125505 54 324 11.0 14.0 0.00 0.00 0.00 1 986.1
20260509125004 54 329 12.0 17.0 0.00 0.00 0.00 1 985.6
20260509124504 54 320 13.0 14.0 0.00 0.00 0.00 1 985.6
20260509124003 54 323 12.0 15.0 0.00 0.00 0.00 100 985.8
20260509123508 53 325 11.0 14.0 0.00 0.00 0.00 1 986.0
20260509123008 53 330 11.0 13.0 0.00 0.00 0.00 100 986.5
20260509122507 53 320 11.0 13.0 0.00 0.00 0.00 100 985.9
20260509122007 53 327 12.0 14.0 0.00 0.00 0.00 100 986.5
20260509121506 53 323 11.0 13.0 0.00 0.00 0.00 100 985.5
20260509121005 53 316 12.0 15.0 0.00 0.00 0.00 100 986.4
20260509120505 53 321 12.0 13.0 0.00 0.00 0.00 100 985.7
20260509115504 53 319 12.0 15.0 0.00 0.00 0.00 1 986.1
20260509115003 53 317 13.0 15.0 0.00 0.00 0.00 100 985.7
20260509114503 53 323 14.0 16.0 0.00 0.00 0.00 100 985.3
20260509114008 53 329 14.0 16.0 0.00 0.00 0.00 100 985.7
20260509113507 53 330 13.0 17.0 0.00 0.00 0.00 100 984.4
20260509113006 53 321 14.0 16.0 0.00 0.00 0.00 100 986.1
20260509112506 53 315 15.0 17.0 0.00 0.00 0.00 1 986.4
20260509112005 53 317 14.0 15.0 0.00 0.00 0.00 1 986.0
20260509111504 53 314 16.0 17.0 0.00 0.00 0.00 1 986.1
20260509111004 53 324 13.0 17.0 0.00 0.00 0.00 1 985.9
20260509110003 53 321 16.0 18.0 0.00 0.00 0.00 1 985.4
20260509105502 53 320 16.0 21.0 0.00 0.00 0.00 1 985.4
20260509104507 53 324 16.0 18.0 0.00 0.00 0.00 1 985.3
20260509104007 53 326 13.0 16.0 0.00 0.00 0.00 1 985.6
20260509103506 53 323 13.0 17.0 0.00 0.00 0.00 1 985.5
20260509103006 53 310 13.0 16.0 0.00 0.00 0.00 2 985.4
20260509102505 53 324 14.0 16.0 0.00 0.00 0.00 2 985.7
20260509102004 53 319 15.0 17.0 0.00 0.00 0.00 2 985.8
20260509101504 53 318 16.0 18.0 0.00 0.00 0.00 2 986.0
20260509101003 53 322 14.0 17.0 0.00 0.00 0.00 2 985.7
20260509100503 53 308 15.0 17.0 0.00 0.00 0.00 2 986.1
20260509100008 53 309 17.0 19.0 0.00 0.00 0.00 1 986.0
20260509095007 53 315 14.0 19.0 0.00 0.00 0.00 2 986.0
20260509094507 53 299 14.0 16.0 0.00 0.00 0.00 2 986.6
20260509094006 53 302 14.0 20.0 0.00 0.00 0.00 2 985.5
20260509093005 53 318 15.0 18.0 0.00 0.00 0.00 3 985.8
20260509092504 53 314 13.0 15.0 0.00 0.00 0.00 3 986.4
20260509092010 53 324 15.0 17.0 0.00 0.00 0.00 3 986.9
20260509091508 53 326 13.0 19.0 0.00 0.00 0.00 4 986.6
20260509091008 53 326 15.0 19.0 0.00 0.00 0.00 4 986.7
20260509090507 53 320 13.0 16.0 0.00 0.00 0.00 5 986.1
20260509090007 53 302 14.0 17.0 0.00 0.00 0.00 5 986.3
20260509085506 53 322 14.0 16.0 0.00 0.00 0.00 5 986.2
20260509085005 53 316 13.0 15.0 0.00 0.00 0.00 5 986.4
20260509084505 53 313 13.0 17.0 0.00 0.00 0.00 6 987.4
20260509084004 53 323 12.0 17.0 0.00 0.00 0.00 5 986.3
20260509083509 53 300 12.0 16.0 0.00 0.00 0.00 5 987.5
20260509083009 53 291 11.0 13.0 0.00 0.00 0.00 5 987.3
20260509082508 53 297 10.0 14.0 0.00 0.00 0.00 5 986.8
20260509082008 53 295 12.0 15.0 0.00 0.00 0.00 6 986.8
20260509081507 53 297 10.0 13.0 0.00 0.00 0.00 6 986.9
20260509081006 53 328 12.0 15.0 0.00 0.00 0.00 6 986.9
20260509080505 53 296 10.0 12.0 0.00 0.00 0.00 6 986.2
20260509080005 53 300 10.0 13.0 0.00 0.00 0.00 6 985.4
20260509075504 53 301 9.0 14.0 0.00 0.00 0.00 7 986.6
20260509075009 53 300 10.0 15.0 0.00 0.00 0.00 6 986.9
20260509074009 53 309 12.0 17.0 0.00 0.00 0.00 7 987.0
20260509073508 53 324 13.0 16.0 0.00 0.00 0.00 7 986.5
20260509073008 53 320 12.0 15.0 0.00 0.00 0.00 6 986.1
20260509072007 53 304 11.0 18.0 0.00 0.00 0.00 6 987.1
20260509071506 53 297 7.0 19.0 0.00 0.00 0.00 6 986.5
20260509071006 53 300 13.0 13.0 0.00 0.00 0.00 6 986.5
20260509070005 53 297 12.0 16.0 0.00 0.00 0.00 6 985.9
20260509065504 53 293 9.0 12.0 0.00 0.00 0.00 6 987.4
20260509064503 54 303 11.0 15.0 0.00 0.00 0.00 6 986.6
20260509064009 54 298 10.0 13.0 0.00 0.00 0.00 6 986.9
20260509063008 54 298 13.0 16.0 0.00 0.00 0.00 5 986.9
20260509062507 54 293 11.0 14.0 0.00 0.00 0.00 4 986.7
20260509062007 54 304 12.0 17.0 0.00 0.00 0.00 3 986.8
20260509061006 54 309 10.0 14.0 0.00 0.00 0.00 3 987.0
20260509060505 55 319 10.0 18.0 0.00 0.00 0.00 3 987.1
20260509060005 55 296 10.0 14.0 0.00 0.00 0.00 3 988.0
20260509055504 55 300 12.0 15.0 0.00 0.00 0.00 3 987.4
20260509054509 55 321 12.0 16.0 0.00 0.00 0.00 3 986.9
20260509054009 55 303 11.0 13.0 0.00 0.00 0.00 3 986.9
20260509053008 55 297 10.0 14.0 0.00 0.00 0.00 3 987.3
20260509052507 55 312 12.0 14.0 0.00 0.00 0.00 3 987.9
20260509052007 55 298 11.0 15.0 0.00 0.00 0.00 3 987.1
20260509051506 55 296 7.0 8.0 0.00 0.00 0.00 3 987.0
20260509050505 55 314 8.0 11.0 0.00 0.00 0.00 4 986.9
20260509050004 55 305 10.0 12.0 0.00 0.00 0.00 4 987.5
20260509045503 55 319 12.0 15.0 0.00 0.00 0.00 4 987.0
20260509045003 54 311 11.0 14.0 0.00 0.00 0.00 4 988.3
20260509044508 54 325 10.0 13.0 0.00 0.00 0.00 4 987.8
20260509044008 55 311 11.0 14.0 0.00 0.00 0.00 4 986.7
20260509043507 54 320 11.0 15.0 0.00 0.00 0.00 4 986.1
20260509043006 54 299 8.0 11.0 0.00 0.00 0.00 4 986.4
20260509042506 55 300 8.0 10.0 0.00 0.00 0.00 4 988.0
20260509042005 54 314 9.0 14.0 0.00 0.00 0.00 4 986.2
20260509041505 54 295 10.0 13.0 0.00 0.00 0.00 5 986.4
20260509041004 55 319 13.0 17.0 0.00 0.00 0.00 4 986.8
20260509040504 55 311 9.0 13.0 0.00 0.00 0.00 5 986.4
20260509040009 55 314 15.0 18.0 0.00 0.00 0.00 4 987.0
20260509035507 55 312 9.0 13.0 0.00 0.00 0.00 4 987.2
20260509035007 55 301 10.0 14.0 0.00 0.00 0.00 4 986.9
20260509034506 55 311 10.0 13.0 0.00 0.00 0.00 3 987.6
20260509034006 55 296 11.0 17.0 0.00 0.00 0.00 3 986.3
20260509033505 55 301 11.0 14.0 0.00 0.00 0.00 3 987.1
20260509033004 55 307 8.0 12.0 0.00 0.00 0.00 4 986.8
20260509032504 55 301 10.0 13.0 0.00 0.00 0.00 4 986.5
20260509032003 55 312 13.0 17.0 0.00 0.00 0.00 4 986.0
20260509031508 55 334 13.0 16.0 0.00 0.00 0.00 3 985.7
20260509031008 55 306 9.0 16.0 0.00 0.00 0.00 3 986.1
20260509030507 55 296 8.0 10.0 0.00 0.00 0.00 4 986.4
20260509030006 55 294 9.0 12.0 0.00 0.00 0.00 3 987.1
20260509025505 55 307 7.0 9.0 0.00 0.00 0.00 3 986.1
20260509025004 55 302 9.0 14.0 0.00 0.00 0.00 3 985.9
20260509024003 55 293 6.0 10.0 0.00 0.00 0.00 3 986.4
20260509023509 55 320 10.0 19.0 0.00 0.00 0.00 2 986.7
20260509023008 56 295 6.0 9.0 0.00 0.00 0.00 2 985.9
20260509022508 55 298 8.0 13.0 0.00 0.00 0.00 2 986.4
20260509022007 56 323 9.0 11.0 0.00 0.00 0.00 2 986.2
20260509021507 56 323 7.0 10.0 0.00 0.00 0.00 2 985.6
20260509020507 56 320 7.0 11.0 0.00 0.00 0.00 2 985.4
20260509020006 56 332 9.0 15.0 0.00 0.00 0.00 1 985.6
20260509015505 57 327 8.0 13.0 0.00 0.00 0.00 2 985.5
20260509014504 57 321 11.0 15.0 0.00 0.00 0.00 1 985.9
20260509014009 58 303 7.0 9.0 0.00 0.00 0.00 100 986.4
20260509013509 58 327 9.0 11.0 0.00 0.00 0.00 1 986.2
20260509013008 58 322 5.0 9.0 0.00 0.00 0.00 1 985.6
20260509012508 58 301 8.0 14.0 0.00 0.00 0.00 1 985.7
20260509012007 59 320 7.0 10.0 0.00 0.00 0.00 1 984.9
20260509011507 59 321 12.0 15.0 0.00 0.00 0.00 1 985.7